Погода в Згуровке

Украина / Киевская область     50˚29′53″N   31˚46′26″E
темп.,
°C
ветер,
м/с
пор.,
м/с
влажн.,
%
обл.,
%
осадки,
мм/ч
давл.,
гПа
погр.,
м
16 января, сб
сб1623:00−11˚сз378084 0.0 1012591
02:00−11˚зсз468892 0.1 1013673
05:00−12˚зсз478599 0.1 1012702
08:00−14˚зсз468891 0.1 1013449
11:00−14˚зсз458381 0.0 1015541
14:00−13˚зсз458190 0.1 1015734
17:00−14˚зсз4582100 0.1 1016742
20:00−14˚сз358199 0.1 1017609
17 января, вс
вс1723:00−15˚зсз248342 0.0 1017441
02:00−15˚сз348538 0.0 1017388
05:00−15˚зсз22858 0.0 1017255
08:00−15˚зсз23864 0.0 1017208
11:00−14˚сз23740 0.0 1017480
14:00−13˚сз227015 0.0 1017584
17:00−14˚сз238249 0.0 1016258
20:00−14˚с238624 0.0 1017191
18 января, пн
пн1823:00−14˚ссз119068 0.0 1018144
02:00−13˚сз239180 0.1 1018291
05:00−14˚ссз239483 0.0 1017190
08:00−14˚ссз229472 0.0 1019134
11:00−12˚ссз2382100 0.1 1019482
14:00−12˚сз3482100 0.2 1019591
17:00−13˚сз3486100 0.0 1019477
20:00−14˚сз3588100 0.1 1020416
19 января, вт
вт1923:00−14˚сз3588100 0.0 1020400
02:00−15˚сз359288 0.1 1020255
05:00−16˚зсз349231 0.0 1020222
08:00−15˚зсз249447 0.0 1021234
11:00−12˚зсз348888 0.0 1021338
14:00−11˚з358794 0.1 1021411
17:00−11˚з2395100 0.0 102258
20:00−12˚з239698 0.1 102381
20 января, ср
ср2023:00−12˚зюз239548 0.0 102359
02:00−12˚ююз239229 0.0 102343
05:00−12˚ю34900 0.0 102385
08:00−12˚ю37940 0.0 1023136
11:00−8˚ю588521 0.0 1023313
14:00−6˚ю588310 0.0 1022349
17:00−8˚ююв510880 0.0 1022215
20:00−7˚ю511882 0.0 1022260